Stations météo

Publicité
Toulouse/Blagnac, France (7630): Température de l'air & dewpoint: 25.05.2020 05:00:00 - 31.05.2020 05:00:00 (CEST)Toulouse/Blagnac, France (7630): Température de l'air -20cm & Température de l'air -100cm: 25.05.2020 05:00:00 - 31.05.2020 05:00:00 (CEST)Toulouse/Blagnac, France (7630): Vitesse du vent & gusts: 25.05.2020 05:00:00 - 31.05.2020 05:00:00 (CEST)Toulouse/Blagnac, France (7630): Direction du vent: 25.05.2020 05:00:00 - 31.05.2020 05:00:00 (CEST)Toulouse/Blagnac, France (7630): reduced air pressure: 25.05.2020 05:00:00 - 31.05.2020 05:00:00 (CEST)Toulouse/Blagnac, France (7630): visibility: 25.05.2020 05:00:00 - 31.05.2020 05:00:00 (CEST)Toulouse/Blagnac, France (7630): Ensoleillement: 25.05.2020 05:00:00 - 31.05.2020 05:00:00 (CEST)Toulouse/Blagnac, France (7630): Quantités de précipitations: 25.05.2020 05:00:00 - 31.05.2020 05:00:00 (CEST)
Date & Time tt [°C] td [°C] tt -20cm [°C] tt -100cm [°C] ff [km/h] ff [knt] fx [km/h] fx [knt] dd ppp [hPa] vv [km] sd [min] rr [mm]
31.05.2020 05:00:00 16,1 13,0 23,1 18,1 12 7 26 14 SE 1012,8 37 0 0,0
31.05.2020 04:00:00 16,8 12,9 23,3 18,1 19 10 31 17 SE 1012,9 39 0 0,0
31.05.2020 03:00:00 17,0 13,1 23,5 18,1 12 6 25 13 SE 1013,2 39 0 0,0
31.05.2020 02:00:00 16,7 12,4 23,8 18,0 11 6 19 10 SSE 1013,6 41 0 0,0
31.05.2020 01:00:00 17,4 12,5 24,0 18,0 11 6 20 11 SSE 1013,9 43 0 0,0
31.05.2020 00:00:00 18,4 12,8 24,2 18,0 13 7 28 15 SSE 1013,7 40 0 0,0
30.05.2020 23:00:00 19,7 13,6 24,4 18,0 19 10 28 15 SSE 1013,5 41 0 0,0
30.05.2020 22:00:00 20,8 13,7 24,5 18,0 17 9 28 15 SSE 1012,9 36 3 0,0
30.05.2020 21:00:00 22,6 13,6 24,5 18,0 18 10 29 16 SSE 1012,4 13 60 0,0
30.05.2020 20:00:00 24,5 13,7 24,4 18,0 20 11 31 17 SE 1012,2 13 60 0,0
30.05.2020 19:00:00 25,7 13,9 24,2 18,0 19 10 39 21 SE 1012,2 11 55 0,0
30.05.2020 18:00:00 27,1 14,8 23,9 18,0 16 9 35 19 SE 1012,4 13 60 0,0
30.05.2020 17:00:00 27,5 14,2 23,5 18,0 13 7 25 13 SE 1012,4 16 60 0,0
30.05.2020 16:00:00 26,7 13,1 23,1 18,0 11 6 31 17 E 1013,0 11 47 0,0
30.05.2020 15:00:00 26,4 13,8 22,7 17,9 16 9 34 19 ESE 1013,3 4,9 60 0,0
30.05.2020 14:00:00 25,8 14,9 22,4 17,9 19 10 35 19 SE 1013,8 5 60 0,0
30.05.2020 13:00:00 24,8 15,1 22,1 17,9 20 11 36 20 SE 1014,4 5 60 0,0
30.05.2020 12:00:00 23,8 15,6 22,0 17,9 19 11 37 20 SSE 1014,8 6 60 0,0
30.05.2020 11:00:00 22,4 14,8 21,9 17,9 24 13 40 22 SSE 1015,1 6 60 0,0
30.05.2020 10:00:00 21,8 15,9 22,0 17,9 22 12 42 23 SE 1015,4 7 60 0,0
30.05.2020 09:00:00 19,6 14,8 22,1 17,9 24 13 40 22 SSE 1015,6 11 60 0,0
30.05.2020 08:00:00 18,1 14,6 22,3 17,9 21 11 35 19 SE 1015,8 17 60 0,0
30.05.2020 07:00:00 16,8 14,1 22,5 17,9 13 7 25 14 SE 1015,8 14 19 0,0
30.05.2020 06:00:00 16,8 14,1 22,7 17,8 16 8 32 17 SE 1015,7 20 0 0,0
30.05.2020 05:00:00 17,0 13,9 22,9 17,9 15 8 30 16 ESE 1015,7 23 0 0,0
30.05.2020 04:00:00 17,3 14,0 23,1 17,8 19 11 36 19 SE 1015,9 23 0 0,0
30.05.2020 03:00:00 17,6 14,1 23,3 17,8 18 10 41 22 SE 1016,1 24 0 0,0
30.05.2020 02:00:00 18,0 14,9 23,5 17,8 20 11 42 23 SE 1016,0 22 0 0,0
30.05.2020 01:00:00 18,4 14,5 23,8 17,8 22 12 42 23 ESE 1016,3 23 0 0,0
30.05.2020 00:00:00 19,1 13,5 24,0 17,8 26 14 45 24 SE 1015,8 24 0 0,0
29.05.2020 23:00:00 19,7 12,5 24,2 17,8 25 14 45 25 SE 1015,9 24 0 0,0
29.05.2020 22:00:00 21,2 11,5 24,3 17,8 24 13 40 22 SE 1015,1 25 2 0,0
29.05.2020 21:00:00 23,3 11,4 24,3 17,8 28 15 42 23 SSE 1014,3 7 60 0,0
29.05.2020 20:00:00 27,9 9,7 24,2 17,8 13 7 31 17 N 1013,2 16 60 0,0
29.05.2020 19:00:00 28,6 9,8 24,1 17,8 15 8 30 16 NNW 1012,9 17 60 0,0
29.05.2020 18:00:00 29,0 11,5 23,8 17,8 13 7 29 16 WNW 1013,3 21 60 0,0
29.05.2020 17:00:00 28,7 11,3 23,4 17,8 8 4 30 16 N 1013,5 20 54 0,0
29.05.2020 16:00:00 28,9 11,0 23,0 17,7 6 3 25 14 W 1014,0 16 58 0,0
29.05.2020 15:00:00 28,1 13,6 22,5 17,7 13 7 26 14 NNE 1014,5 15 58 0,0
29.05.2020 14:00:00 27,8 12,2 22,2 17,7 11 6 22 12 N 1015,1 20 60 0,0
29.05.2020 13:00:00 26,8 13,9 21,9 17,7 9 5 19 11 WNW 1015,5 17 60 0,0
29.05.2020 12:00:00 25,3 13,5 21,7 17,7 8 4 20 11 NW 1016,2 18 60 0,0
29.05.2020 11:00:00 23,9 13,7 21,6 17,7 4 2 13 7 NNW 1016,4 19 60 0,0
29.05.2020 10:00:00 21,6 13,5 21,6 17,7 3 2 10 6 S 1017,0 30 60 0,0
29.05.2020 09:00:00 18,9 13,3 21,8 17,7 5 3 11 6 S 1017,4 18 60 0,0
29.05.2020 08:00:00 16,3 13,0 21,9 17,7 6 3 10 6 S 1017,8 17 60 0,0
29.05.2020 07:00:00 14,6 12,5 22,2 17,6 8 4 10 6 S 1017,9 18 19 0,0
29.05.2020 06:00:00 15,0 12,1 22,4 17,6 8 4 10 5 SSW 1017,9 23 0 0,0
29.05.2020 05:00:00 16,1 12,5 22,6 17,6 4 2 9 5 SSE 1017,8 26 0 0,0
29.05.2020 04:00:00 16,0 12,5 22,9 17,6 8 5 12 7 S 1018,2 15 0 0,0
29.05.2020 03:00:00 16,3 13,2 23,1 17,6 6 3 13 7 SSE 1018,5 15 0 0,0
29.05.2020 02:00:00 17,1 13,0 23,4 17,6 8 4 14 7 S 1018,8 16 0 0,0
29.05.2020 01:00:00 19,3 12,3 23,6 17,6 5 3 8 4 S 1019,1 16 0 0,0
29.05.2020 00:00:00 21,4 10,8 23,8 17,6 5 3 12 6 NW 1019,5 18 0 0,0
28.05.2020 23:00:00 23,2 10,9 23,9 17,6 8 4 12 6 WNW 1019,7 19 0 0,0
28.05.2020 22:00:00 23,8 11,1 24,1 17,6 9 5 14 8 NW 1019,4 18 1 0,0
28.05.2020 21:00:00 26,3 10,4 24,0 17,6 8 4 16 8 N 1019,3 20 60 0,0
28.05.2020 20:00:00 27,5 11,1 24,0 17,5 6 4 22 12 NE 1019,4 15 60 0,0
28.05.2020 19:00:00 28,1 11,2 23,8 17,5 9 5 27 15 N 1019,6 19 60 0,0
28.05.2020 18:00:00 28,6 11,2 23,4 17,5 12 7 26 14 N 1020,1 15 60 0,0
28.05.2020 17:00:00 28,4 11,0 23,0 17,5 8 5 23 12 NE 1020,6 16 60 0,0
28.05.2020 16:00:00 28,1 12,0 22,6 17,5 8 4 46 25 ESE 1021,3 18 60 0,0
28.05.2020 15:00:00 27,3 13,6 22,1 17,5 12 7 26 14 ENE 1022,2 15 60 0,0
28.05.2020 14:00:00 26,4 13,8 21,7 17,5 12 7 23 13 ESE 1022,8 12 60 0,0
28.05.2020 13:00:00 25,3 14,7 21,5 17,5 11 6 24 13 SE 1023,6 12 60 0,0
28.05.2020 12:00:00 23,6 14,9 21,3 17,4 11 6 34 19 ESE 1024,2 10 60 0,0
28.05.2020 11:00:00 22,4 14,5 21,2 17,5 14 8 28 15 ESE 1024,8 8 60 0,0
28.05.2020 10:00:00 20,6 14,5 21,3 17,4 18 10 30 16 SE 1025,3 6 60 0,0
28.05.2020 09:00:00 19,3 14,8 21,4 17,4 16 9 28 15 SE 1025,6 10 60 0,0
28.05.2020 08:00:00 17,1 14,2 21,6 17,4 14 8 22 12 ESE 1025,9 10 60 0,0
28.05.2020 07:00:00 15,5 13,5 21,8 17,4 9 5 21 11 SE 1026,1 14 18 0,0
28.05.2020 06:00:00 14,9 13,1 22,0 17,4 9 5 18 10 SSE 1026,0 16 0 0,0
28.05.2020 05:00:00 15,1 12,6 22,2 17,4 8 4 14 8 SSE 1025,9 17 0 0,0
28.05.2020 04:00:00 16,0 12,4 22,5 17,4 7 4 18 10 ESE 1026,1 20 0 0,0
28.05.2020 03:00:00 16,2 13,1 22,7 17,4 9 5 22 12 SE 1026,2 19 0 0,0
28.05.2020 02:00:00 17,0 13,5 - - 15 8 22 12 SE 1026,4 19 - -
28.05.2020 01:00:00 17,6 13,1 23,1 17,4 12 6 26 14 SSE 1026,7 20 0 0,0
28.05.2020 00:00:00 18,3 13,6 23,3 17,4 17 9 35 19 SE 1026,8 21 0 0,0
27.05.2020 23:00:00 19,7 13,4 23,5 17,4 18 10 37 20 SE 1026,6 23 0 0,0
27.05.2020 22:00:00 20,7 12,9 23,6 17,4 19 11 38 21 SE 1026,0 22 0 0,0
27.05.2020 21:00:00 22,2 13,8 23,6 17,3 22 12 41 22 SSE 1025,5 8 60 0,0
27.05.2020 20:00:00 24,5 12,8 23,5 17,3 24 13 39 21 SE 1025,0 12 60 0,0
27.05.2020 19:00:00 25,8 14,3 23,3 17,3 25 14 35 19 SSE 1024,6 13 60 0,0
27.05.2020 18:00:00 27,2 14,6 23,0 17,3 20 11 32 17 SSE 1024,6 16 60 0,0
27.05.2020 17:00:00 27,9 11,9 22,6 17,3 15 8 31 17 ESE 1024,8 18 60 0,0
27.05.2020 16:00:00 27,8 12,6 22,1 17,3 11 6 30 16 E 1025,1 15 60 0,0
27.05.2020 15:00:00 27,5 13,8 21,6 17,3 10 5 26 14 S 1025,4 13 60 0,0
27.05.2020 14:00:00 26,6 15,0 21,2 17,3 6 3 20 11 E 1025,8 12 60 0,0
27.05.2020 13:00:00 25,6 14,1 20,9 17,3 6 4 19 11 ESE 1026,3 11 60 0,0
27.05.2020 12:00:00 24,3 13,5 20,7 17,3 4 2 15 8 W 1026,5 11 60 0,0
27.05.2020 11:00:00 22,4 14,8 20,6 17,3 6 3 15 8 SSW 1026,7 11 60 0,0
27.05.2020 10:00:00 19,9 13,8 20,6 17,3 8 5 19 11 S 1026,8 14 60 0,0
27.05.2020 09:00:00 18,1 12,5 20,8 17,3 6 4 13 7 SSW 1026,7 15 60 0,0
27.05.2020 08:00:00 15,9 12,1 21,0 17,3 5 3 9 5 SW 1026,6 16 60 0,0
27.05.2020 07:00:00 14,2 10,8 21,2 17,2 3 2 12 7 W 1026,5 22 17 0,0
27.05.2020 06:00:00 13,7 10,9 21,4 17,3 5 3 14 7 NW 1026,2 23 0 0,0
27.05.2020 05:00:00 14,0 11,9 21,7 17,3 10 5 15 8 SW 1025,9 20 0 0,0
27.05.2020 04:00:00 14,8 11,6 21,9 17,2 5 3 10 5 S 1026,1 22 0 0,0
27.05.2020 03:00:00 16,2 11,6 22,1 17,2 5 3 8 4 S 1026,2 23 0 0,0
27.05.2020 02:00:00 18,6 11,2 22,2 17,2 6 3 19 10 NE 1026,1 24 0 0,0
27.05.2020 01:00:00 19,4 11,4 22,5 17,2 6 3 19 11 SW 1026,3 23 0 0,0
27.05.2020 00:00:00 20,5 11,4 22,7 17,2 13 7 19 10 W 1026,3 24 0 0,0
26.05.2020 23:00:00 21,0 11,6 22,8 17,2 11 6 15 8 W 1026,4 24 0 0,0
26.05.2020 22:00:00 22,1 11,2 22,9 17,2 11 6 16 9 WNW 1026,0 24 0 0,0
26.05.2020 21:00:00 24,5 11,1 22,9 17,2 12 7 20 11 NW 1025,7 20 60 0,0
26.05.2020 20:00:00 26,1 11,4 22,8 17,2 13 7 24 13 NW 1025,3 11 60 0,0
26.05.2020 19:00:00 26,7 10,8 22,6 17,2 13 7 26 14 NNW 1025,4 17 60 0,0
26.05.2020 18:00:00 26,7 10,8 22,3 17,2 15 8 37 20 NW 1025,7 9 60 0,0
26.05.2020 17:00:00 26,6 11,5 21,9 17,2 18 10 30 16 N 1026,0 13 60 0,0
26.05.2020 16:00:00 26,1 13,9 21,4 17,2 10 6 31 17 WNW 1026,4 15 60 0,0
26.05.2020 15:00:00 25,3 13,8 21,0 17,2 14 7 31 17 NW 1026,7 14 60 0,0
26.05.2020 14:00:00 24,3 15,0 20,6 17,2 9 5 29 15 WNW 1027,3 15 60 0,0
26.05.2020 13:00:00 22,6 14,7 20,3 17,2 11 6 28 15 WNW 1027,8 13 60 0,0
26.05.2020 12:00:00 21,0 14,4 20,1 17,1 16 9 29 16 WNW 1028,2 10 60 0,0
26.05.2020 11:00:00 20,6 14,0 20,1 17,2 17 9 30 16 WNW 1028,2 10 60 0,0
26.05.2020 10:00:00 19,1 13,7 20,1 17,1 16 8 26 14 WNW 1028,2 11 60 0,0
26.05.2020 09:00:00 17,2 13,1 20,2 17,1 16 9 27 14 W 1028,3 10 60 0,0
26.05.2020 08:00:00 16,2 12,6 20,4 17,2 18 10 31 17 W 1028,0 12 60 0,0
26.05.2020 07:00:00 15,3 11,5 20,6 17,1 16 9 25 14 W 1027,9 13 17 0,0
26.05.2020 06:00:00 15,1 10,9 20,8 17,1 14 8 23 13 W 1027,4 24 0 0,0
26.05.2020 05:00:00 13,4 10,0 21,0 17,1 5 3 10 5 SSW 1027,2 24 0 0,0
26.05.2020 04:00:00 13,9 10,3 21,3 17,1 9 5 13 7 SSW 1027,2 24 0 0,0
26.05.2020 03:00:00 17,2 9,6 21,4 17,1 5 3 20 11 SW 1026,8 26 0 0,0
26.05.2020 02:00:00 18,7 10,0 21,6 17,1 13 7 25 13 WNW 1027,0 27 0 0,0
26.05.2020 01:00:00 19,4 9,8 21,8 17,1 16 9 23 13 W 1027,0 27 0 0,0
26.05.2020 00:00:00 20,0 9,8 22,0 17,1 15 8 24 13 W 1026,9 26 0 0,0
25.05.2020 23:00:00 20,8 10,0 22,1 17,1 14 7 20 11 W 1026,9 26 0 0,0
25.05.2020 22:00:00 21,9 10,1 22,2 17,1 10 6 19 10 W 1026,5 23 0 0,0
25.05.2020 21:00:00 23,6 9,2 22,2 17,1 15 8 21 11 W 1025,9 23 60 0,0
25.05.2020 20:00:00 25,0 9,3 22,1 17,1 13 7 21 12 W 1025,3 32 60 0,0
25.05.2020 19:00:00 25,7 9,1 21,8 17,1 10 6 23 13 WNW 1025,2 24 60 0,0
25.05.2020 18:00:00 25,6 9,8 21,5 17,1 14 7 29 15 NW 1025,5 20 60 0,0
25.05.2020 17:00:00 25,3 10,0 21,0 17,1 14 7 26 14 NNW 1025,5 18 60 0,0
25.05.2020 16:00:00 25,3 10,7 20,5 17,1 10 5 25 14 N 1025,9 22 60 0,0
25.05.2020 15:00:00 24,5 9,2 20,0 17,0 10 6 23 12 NNW 1026,3 19 60 0,0
25.05.2020 14:00:00 23,8 9,0 19,6 17,1 7 4 21 11 NW 1026,8 27 60 0,0
25.05.2020 13:00:00 23,3 10,0 19,3 17,1 5 3 18 10 ESE 1027,0 19 60 0,0
25.05.2020 12:00:00 21,8 10,0 19,0 17,1 4 2 14 7 NNE 1027,4 19 60 0,0
25.05.2020 11:00:00 20,4 10,2 19,0 17,1 4 2 15 8 NNW 1027,6 19 60 0,0
25.05.2020 10:00:00 18,6 9,6 19,0 17,1 5 3 11 6 NE 1027,9 29 60 0,0
25.05.2020 09:00:00 16,3 9,5 19,1 17,0 4 2 9 5 NE 1028,0 16 60 0,0
25.05.2020 08:00:00 12,9 10,1 19,3 17,1 3 2 6 3 SW 1028,3 19 60 0,0
25.05.2020 07:00:00 10,6 8,4 19,5 17,1 4 2 6 3 S 1028,3 24 16 0,0
25.05.2020 06:00:00 10,9 7,9 19,8 17,1 5 3 9 5 NNW 1028,2 27 0 0,0
25.05.2020 05:00:00 11,7 8,4 20,0 17,0 6 3 10 5 NW 1028,1 29 0 0,0

tt = Température de l'air
td = dewpoint
tt -20cm = Température de l'air -20cm
tt -100cm = Température de l'air -100cm
ff = Vitesse du vent
fx = gusts
dd = Direction du vent
ppp = reduced air pressure
vv = visibility
sd = Ensoleillement
rr = Quantités de précipitations

stations d'obs. à proximité